Gallivare, Sweden

12:55 AM CEST on May 26, 2017 (GMT +0200)
Gallivare

Weather History for ESNG - March, 2013

Change the Weather History Date:

Sunday, March 3, 2013

  Actual Average Record
Temperature  
Mean Temperature 4 °F -  
Max Temperature 12 °F - - ()
Min Temperature -5 °F - - ()
Degree Days  
Heating Degree Days 62    
Moisture  
Dew Point 4 °F    
Average Humidity 87    
Maximum Humidity 92    
Minimum Humidity 78    
Precipitation  
Precipitation 0.00 in - - ()
Sea Level Pressure  
Sea Level Pressure 29.72 in    
Wind  
Wind Speed 3 mph ()    
Max Wind Speed 6 mph    
Max Gust Speed -    
Visibility 5.2 miles    
Events Snow    
T = Trace of Precipitation, MM = Missing Value Source: Averaged Metar Reports

Daily Weather History Graph

Daily Weather History Graph

Search for Another Location

Airport or City:

Trip Planner

Search our weather history database for the weather conditions in past years. The results will help you decide how hot, cold, wet, or windy it might be!

Date:

Astronomy

Mar. 03, 2013 Rise Set
Actual Time 6:45 AM CET 4:54 PM CET
Civil Twilight 5:51 AM CET 5:48 PM CET
Nautical Twilight 4:49 AM CET 6:50 PM CET
Astronomical Twilight 3:44 AM CET 7:56 PM CET
Moon 1:06 AM CET (3/3) 6:45 AM CET (3/3)
Length of Visible Light 11h 56m
Length of Day
10h 08m
Waning Gibbous, 66% of the Moon is Illuminated
Mar 3
Waning Gibbous
Mar 4
Last Quarter
Mar 11
New
Mar 19
First Quarter
Mar 27
Full

Hourly Weather History & Observations

Time (CET) Temp. Windchill Dew Point Humidity Pressure Visibility Wind Dir Wind Speed Gust Speed Precip Events Conditions
12:20 AM 10.4 °F 0.8 °F 8.6 °F 92% 29.59 in 3.1 mi East 5.8 mph - N/A Snow Light Snow
1:20 AM 10.4 °F 0.8 °F 6.8 °F 85% 29.59 in - ESE 5.8 mph - N/A Snow Light Snow
1:50 AM 10.4 °F 2.2 °F 6.8 °F 85% 29.59 in - ESE 4.6 mph - N/A Snow Light Snow
2:20 AM 10.4 °F 4.0 °F 6.8 °F 85% 29.62 in 1.6 mi ESE 3.5 mph - N/A Snow Light Snow
2:50 AM 8.6 °F - 6.8 °F 92% 29.62 in - ESE 2.3 mph - N/A Snow Light Snow
3:20 AM 10.4 °F 2.2 °F 6.8 °F 85% 29.62 in - ESE 4.6 mph - N/A   Unknown
3:50 AM 8.6 °F 2.0 °F 6.8 °F 92% 29.62 in 2.5 mi East 3.5 mph - N/A Snow Light Snow
4:20 AM 10.4 °F 4.0 °F 6.8 °F 85% 29.65 in - East 3.5 mph - N/A Snow Light Snow
4:50 AM 8.6 °F - 6.8 °F 92% 29.65 in 5.0 mi East 2.3 mph - N/A Snow Snow Grains
5:20 AM 8.6 °F - 5.0 °F 85% 29.65 in 6.2 mi SE 2.3 mph - N/A   Unknown
5:50 AM 8.6 °F - 5.0 °F 85% 29.65 in 6.2 mi Variable 2.3 mph - N/A   Unknown
6:20 AM 6.8 °F - 3.2 °F 85% 29.65 in 6.2 mi Variable 2.3 mph - N/A   Unknown
6:50 AM 6.8 °F - 5.0 °F 92% 29.68 in 6.2 mi Variable 2.3 mph - N/A   Unknown
7:20 AM 6.8 °F - 5.0 °F 92% 29.68 in 6.2 mi Variable 1.2 mph - N/A   Unknown
7:50 AM 8.6 °F - 5.0 °F 85% 29.68 in 6.2 mi Calm Calm - N/A   Unknown
8:20 AM 6.8 °F - 5.0 °F 92% 29.71 in 6.2 mi Calm Calm - N/A   Unknown
8:50 AM 6.8 °F - 5.0 °F 92% 29.71 in 6.2 mi Variable 2.3 mph - N/A   Unknown
9:20 AM 10.4 °F - 6.8 °F 85% 29.74 in 6.2 mi ESE 1.2 mph - N/A   Unknown
9:50 AM 8.6 °F 0.1 °F 5.0 °F 85% 29.74 in 6.2 mi ESE 4.6 mph - N/A   Unknown
10:20 AM 8.6 °F 0.1 °F 6.8 °F 92% 29.74 in 6.2 mi ESE 4.6 mph - N/A   Unknown
10:50 AM 10.4 °F 2.2 °F 5.0 °F 79% 29.74 in 6.2 mi ESE 4.6 mph - N/A   Partly Cloudy
11:20 AM 10.4 °F 2.2 °F 6.8 °F 85% 29.74 in 6.2 mi ESE 4.6 mph - N/A   Partly Cloudy
12:20 PM 10.4 °F 4.0 °F 6.8 °F 85% 29.77 in 6.2 mi ESE 3.5 mph - N/A   Partly Cloudy
12:50 PM 12.2 °F - 8.6 °F 85% 29.77 in 6.2 mi ESE 2.3 mph - N/A   Partly Cloudy
1:20 PM 12.2 °F - 8.6 °F 85% 29.77 in 6.2 mi East 2.3 mph - N/A   Unknown
1:50 PM 12.2 °F 4.3 °F 8.6 °F 85% 29.77 in 6.2 mi ESE 4.6 mph - N/A   Unknown
2:20 PM 12.2 °F 4.3 °F 8.6 °F 85% 29.77 in - ESE 4.6 mph - N/A   Clear
2:50 PM 12.2 °F 4.3 °F 8.6 °F 85% 29.77 in - ESE 4.6 mph - N/A   Clear
3:20 PM 10.4 °F 2.2 °F 6.8 °F 85% 29.77 in - ESE 4.6 mph - N/A   Clear
3:50 PM 12.2 °F 4.3 °F 8.6 °F 85% 29.77 in - ESE 4.6 mph - N/A   Clear
4:20 PM 12.2 °F 2.9 °F 8.6 °F 85% 29.77 in - ESE 5.8 mph - N/A   Clear
4:50 PM 8.6 °F 0.1 °F 6.8 °F 92% 29.77 in - ESE 4.6 mph - N/A   Clear
5:20 PM 6.8 °F -0.1 °F 3.2 °F 85% 29.77 in - ESE 3.5 mph - N/A   Clear
5:50 PM 8.6 °F 2.0 °F 5.0 °F 85% 29.77 in 5.0 mi East 3.5 mph - N/A Snow Light Snow
6:20 PM 6.8 °F -0.1 °F 5.0 °F 92% 29.80 in 6.2 mi East 3.5 mph - N/A Snow Light Snow
6:50 PM 3.2 °F - 1.4 °F 92% 29.80 in 6.2 mi SSE 2.3 mph - N/A Snow Light Snow
7:20 PM 3.2 °F - -0.4 °F 85% 29.80 in 5.0 mi South 2.3 mph - N/A Snow Light Snow
7:50 PM 1.4 °F - -0.4 °F 92% 29.80 in 5.0 mi Variable 2.3 mph - N/A Snow Light Snow
8:20 PM -0.4 °F -8.3 °F -4.0 °F 85% 29.80 in 6.2 mi SE 3.5 mph - N/A Snow Light Snow
9:20 PM -5.8 °F -14.5 °F -9.4 °F 84% 29.80 in 5.6 mi ESE 3.5 mph - N/A Snow Light Snow
10:20 PM -4.0 °F - -7.6 °F 85% 29.80 in 5.6 mi Calm Calm - N/A Snow Light Snow
10:50 PM -4.0 °F - -9.4 °F 78% 29.80 in 0.5 mi Calm Calm - N/A Snow Light Snow
11:20 PM -4.0 °F - -7.6 °F 85% 29.77 in 1.7 mi NW 2.3 mph - N/A Snow Light Snow
11:50 PM -4.0 °F - -9.4 °F 78% 29.77 in 0.9 mi Variable 2.3 mph - N/A Snow Light Snow